"startDT [UTC]","vpos","CH4 [ppm]","stdev(CH4) [ppm]","CO2 [ppm]","stdev(CO2) [ppm]","H2O [ppm]","stdev(H2O)","p_LGR [torr]","T_LGR [C]","mt1_LGR [us]","mt2_LGR [us]","T_ECpre [C]","T_EC1 [C]","T_EC2 [C]","p_inlet [hPa]","p_in [hPa]","p_out [hPa]","T_inlet [C]","RH_inlet [%]","dwpt_inlet [C]","T_vent [C]","RH_vent [%]","dwpt_vent [C]","flow_vent [l min-1]","flow_inlet [l min-1]","dwpt_sample [C]","T_room [C]"
2012-06-29 00:00:00,0.0,1.8721,0.0009,395.75,0.32,11.3,20.3,138.07,30.72,24.65,36.46,0.94,14.46,-26.74,-53,528,-935,21.6,23.2,-0.3,22.0,1.8,-30.7,5.73,2.37,-28.4,28.2
2012-06-29 00:01:00,0.0,1.8719,0.0007,395.76,0.28,8.5,16.4,138.06,30.72,24.65,36.45,0.94,14.61,-26.73,-53,528,-936,21.6,23.3,-0.3,22.0,1.8,-30.7,5.73,2.35,-28.4,28.2
2012-06-29 00:02:00,0.0,1.8722,0.0009,395.90,0.30,8.8,15.4,138.07,30.72,24.65,36.45,0.92,14.76,-26.73,-53,528,-935,21.6,23.3,-0.3,22.0,1.8,-30.6,5.73,2.36,-28.4,28.2
2012-06-29 00:03:00,0.0,1.8721,0.0009,395.90,0.35,8.8,14.5,138.07,30.72,24.65,36.45,0.91,14.90,-26.73,-53,528,-935,21.6,23.2,-0.3,22.0,1.8,-30.6,5.73,2.39,-28.5,28.3
2012-06-29 00:04:00,0.0,1.8724,0.0008,395.85,0.26,6.4,14.6,138.07,30.72,24.64,36.45,0.93,15.03,-26.72,-53,528,-935,21.6,23.3,-0.2,22.0,1.8,-30.7,5.73,2.37,-28.5,28.2
2012-06-29 00:05:00,0.0,1.8721,0.0011,395.96,0.29,8.0,17.4,138.07,30.72,24.65,36.45,0.88,15.16,-26.71,-53,528,-935,21.6,23.3,-0.3,22.0,1.8,-30.7,5.73,2.35,-28.5,28.2
2012-06-29 00:06:00,0.0,1.8721,0.0009,395.87,0.30,9.0,20.5,138.07,30.72,24.64,36.45,0.90,15.27,-26.71,-53,528,-935,21.6,23.2,-0.3,22.0,1.8,-30.7,5.73,2.38,-28.5,28.3
2012-06-29 00:07:00,0.0,1.8718,0.0008,395.83,0.26,6.4,14.7,138.07,30.72,24.65,36.45,0.92,15.39,-26.70,-53,528,-935,21.6,23.3,-0.3,22.0,1.8,-30.6,5.73,2.39,-28.5,28.3
2012-06-29 00:08:00,0.0,1.8722,0.0009,395.90,0.30,6.2,11.7,138.07,30.72,24.64,36.45,0.91,15.51,-26.70,-53,528,-935,21.6,23.3,-0.3,22.0,1.8,-30.7,5.73,2.36,-28.5,28.3
2012-06-29 00:09:00,0.0,1.8725,0.0010,396.24,0.28,4.2,14.7,138.07,30.72,24.64,36.45,0.90,15.61,-26.70,-53,528,-935,21.6,23.2,-0.3,22.0,1.8,-30.7,5.73,2.36,-28.5,28.3
2012-06-29 00:10:00,0.0,1.8728,0.0009,396.23,0.28,7.6,16.9,138.07,30.72,24.64,36.45,0.93,15.71,-26.69,-53,528,-935,21.6,23.2,-0.3,22.0,1.8,-30.7,5.73,2.39,-28.5,28.3
2012-06-29 00:11:00,0.0,1.8731,0.0009,396.31,0.33,5.4,12.5,138.06,30.71,24.64,36.44,0.92,15.80,-26.68,-53,528,-935,21.6,23.3,-0.3,22.0,1.8,-30.7,5.73,2.37,-28.5,28.3
2012-06-29 00:12:00,0.0,1.8721,0.0010,395.99,0.32,6.1,13.2,138.06,30.71,24.65,36.44,0.93,15.90,-26.68,-53,528,-935,21.6,23.4,-0.2,22.0,1.8,-30.7,5.73,2.35,-28.5,28.3
2012-06-29 00:13:00,0.0,1.8720,0.0009,395.78,0.23,8.4,17.8,138.07,30.71,24.65,36.45,0.93,15.99,-26.68,-53,528,-935,21.6,23.5,-0.1,22.1,1.8,-30.7,5.73,2.37,-28.5,28.3
2012-06-29 00:14:00,0.0,1.8721,0.0009,396.00,0.26,10.3,18.4,138.07,30.71,24.65,36.45,0.94,16.08,-26.67,-53,528,-935,21.6,23.5,-0.1,22.0,1.8,-30.6,5.73,2.39,-28.5,28.2
2012-06-29 00:15:00,0.0,1.8722,0.0010,396.10,0.32,9.8,17.5,138.06,30.71,24.65,36.45,0.93,16.15,-26.67,-53,528,-935,21.6,23.5,-0.1,22.0,1.8,-30.7,5.73,2.36,-28.5,28.3
2012-06-29 00:16:00,0.0,1.8723,0.0009,395.85,0.25,9.5,17.3,138.07,30.71,24.64,36.45,0.94,16.24,-26.67,-53,528,-935,21.6,23.5,-0.1,22.0,1.8,-30.7,5.73,2.35,-28.5,28.3
2012-06-29 00:17:00,0.0,1.8720,0.0010,395.95,0.25,8.1,16.6,138.06,30.72,24.64,36.45,0.94,16.31,-26.66,-53,528,-935,21.6,23.5,-0.1,22.0,1.8,-30.7,5.73,2.38,-28.5,28.3
2012-06-29 00:18:00,0.0,1.8724,0.0008,396.03,0.31,6.7,15.4,138.06,30.72,24.64,36.44,0.93,16.38,-26.65,-53,528,-935,21.6,23.5,-0.1,22.0,1.8,-30.7,5.73,2.38,-28.5,28.3
2012-06-29 00:19:00,0.0,1.8724,0.0011,396.13,0.35,5.6,14.3,138.07,30.72,24.65,36.45,0.94,16.45,-26.65,-53,528,-935,21.6,23.5,-0.1,22.0,1.8,-30.7,5.73,2.36,-28.5,28.3
2012-06-29 00:20:00,0.0,1.8725,0.0009,396.13,0.24,5.1,14.0,138.06,30.72,24.64,36.45,0.94,16.52,-26.65,-53,528,-935,21.6,23.5,-0.1,22.0,1.8,-30.6,5.73,2.36,-28.5,28.3
2012-06-29 00:21:00,0.0,1.8725,0.0009,396.10,0.29,5.5,12.5,138.07,30.72,24.64,36.45,0.93,16.59,-26.64,-53,528,-935,21.6,23.6,-0.1,22.0,1.8,-30.6,5.73,2.38,-28.5,28.3
2012-06-29 00:22:00,0.0,1.8727,0.0009,396.02,0.30,6.2,13.2,138.07,30.72,24.64,36.45,0.92,16.65,-26.64,-53,528,-935,21.6,23.6,-0.0,22.0,1.8,-30.7,5.73,2.37,-28.5,28.3
2012-06-29 00:23:00,0.0,1.8727,0.0008,396.07,0.27,8.5,14.7,138.06,30.72,24.65,36.45,0.92,16.70,-26.64,-53,528,-935,21.6,23.6,-0.1,22.0,1.8,-30.7,5.73,2.35,-28.5,28.3
2012-06-29 00:24:00,0.0,1.8729,0.0008,396.22,0.28,3.7,11.0,138.07,30.72,24.65,36.44,0.91,16.76,-26.63,-53,528,-935,21.6,23.7,-0.0,22.0,1.8,-30.6,5.73,2.37,-28.5,28.3
2012-06-29 00:25:00,0.0,1.8728,0.0010,396.00,0.29,13.5,20.4,138.07,30.72,24.65,36.45,0.90,16.82,-26.63,-53,528,-935,21.6,23.7,-0.0,22.0,1.8,-30.7,5.73,2.38,-28.5,28.3
2012-06-29 00:26:00,0.0,1.8727,0.0010,396.07,0.29,6.3,16.7,138.07,30.72,24.65,36.46,0.91,16.86,-26.63,-53,528,-935,21.6,23.6,-0.1,22.0,1.8,-30.7,5.73,2.36,-28.5,28.3
2012-06-29 00:27:00,0.0,1.8726,0.0010,396.23,0.25,8.9,15.2,138.07,30.72,24.64,36.46,0.91,16.91,-26.63,-53,528,-935,21.6,23.6,-0.1,22.0,1.8,-30.6,5.73,2.35,-28.5,28.3
2012-06-29 00:28:00,0.0,1.8724,0.0009,396.01,0.27,4.5,11.7,138.06,30.72,24.64,36.45,0.91,16.96,-26.62,-53,528,-935,21.6,23.6,-0.1,22.0,1.8,-30.7,5.73,2.38,-28.5,28.3
2012-06-29 00:29:00,0.0,1.8726,0.0008,395.92,0.32,6.2,15.0,138.07,30.72,24.64,36.45,0.92,17.00,-26.62,-53,528,-935,21.6,23.6,-0.1,22.1,1.8,-30.6,5.73,2.38,-28.5,28.3
2012-06-29 00:30:00,0.0,1.8730,0.0010,395.93,0.32,5.0,10.2,138.07,30.72,24.64,36.45,0.92,17.04,-26.62,-53,528,-935,21.6,23.7,-0.0,22.0,1.8,-30.6,5.73,2.35,-28.5,28.3
2012-06-29 00:31:00,0.0,1.8725,0.0008,395.85,0.31,9.5,18.5,138.07,30.72,24.65,36.45,0.92,17.08,-26.62,-53,528,-935,21.6,23.7,0.0,22.0,1.8,-30.7,5.73,2.36,-28.5,28.3
2012-06-29 00:32:00,0.0,1.8721,0.0008,395.98,0.29,7.0,14.3,138.07,30.72,24.65,36.45,0.93,17.12,-26.62,-53,528,-935,21.6,23.7,-0.0,22.0,1.8,-30.7,5.73,2.38,-28.6,28.3
2012-06-29 00:33:00,0.0,1.8723,0.0008,396.19,0.32,6.1,12.7,138.07,30.72,24.64,36.45,0.92,17.16,-26.62,-53,528,-935,21.6,23.7,-0.1,22.0,1.8,-30.6,5.73,2.37,-28.6,28.3
2012-06-29 00:34:00,0.0,1.8725,0.0008,396.24,0.27,6.2,11.8,138.07,30.72,24.65,36.46,0.94,17.20,-26.61,-53,528,-935,21.6,23.6,-0.1,22.1,1.8,-30.6,5.73,2.35,-28.6,28.3
2012-06-29 00:35:00,0.0,1.8724,0.0010,396.35,0.27,3.2,11.5,138.06,30.72,24.64,36.45,0.93,17.23,-26.61,-53,528,-936,21.6,23.5,-0.2,22.0,1.8,-30.6,5.73,2.38,-28.6,28.3
2012-06-29 00:36:00,0.0,1.8728,0.0007,396.23,0.30,5.8,11.5,138.06,30.72,24.64,36.44,0.93,17.26,-26.61,-53,528,-935,21.6,23.5,-0.1,22.0,1.8,-30.7,5.73,2.39,-28.6,28.3
2012-06-29 00:37:00,0.0,1.8726,0.0010,396.01,0.35,6.5,12.9,138.06,30.72,24.65,36.45,0.93,17.29,-26.61,-53,528,-935,21.6,23.7,-0.0,22.0,1.8,-30.7,5.73,2.36,-28.6,28.3
2012-06-29 00:38:00,0.0,1.8725,0.0010,395.86,0.29,7.1,12.5,138.06,30.72,24.65,36.45,0.93,17.32,-26.61,-53,528,-935,21.6,23.8,0.0,22.0,1.8,-30.6,5.73,2.35,-28.6,28.3
2012-06-29 00:39:00,0.0,1.8724,0.0010,396.06,0.25,4.8,11.5,138.06,30.72,24.65,36.45,0.93,17.35,-26.61,-53,528,-935,21.6,23.7,0.0,22.0,1.8,-30.7,5.73,2.38,-28.6,28.3
2012-06-29 00:40:00,0.0,1.8727,0.0008,396.02,0.31,5.9,13.7,138.06,30.72,24.64,36.44,0.94,17.38,-26.61,-53,528,-935,21.6,23.8,0.1,22.0,1.8,-30.6,5.73,2.38,-28.6,28.3
2012-06-29 00:41:00,0.0,1.8726,0.0009,395.94,0.38,6.8,16.7,138.07,30.72,24.64,36.45,0.93,17.41,-26.60,-53,528,-935,21.6,24.0,0.1,22.0,1.8,-30.7,5.73,2.35,-28.6,28.3
2012-06-29 00:42:00,0.0,1.8727,0.0011,395.96,0.28,6.3,13.1,138.07,30.72,24.65,36.46,0.92,17.43,-26.61,-53,528,-935,21.6,23.9,0.1,22.0,1.8,-30.7,5.73,2.37,-28.6,28.3
2012-06-29 00:43:00,0.0,1.8727,0.0009,396.12,0.21,4.0,12.5,138.06,30.72,24.65,36.45,0.92,17.45,-26.60,-53,528,-935,21.6,23.8,0.0,22.0,1.8,-30.7,5.73,2.39,-28.6,28.3
2012-06-29 00:44:00,0.0,1.8728,0.0008,396.19,0.28,9.2,16.6,138.06,30.71,24.65,36.44,0.93,17.48,-26.60,-53,528,-935,21.6,23.8,0.1,22.0,1.8,-30.7,5.73,2.36,-28.6,28.3
2012-06-29 00:45:00,0.0,1.8727,0.0009,396.01,0.29,5.6,11.9,138.07,30.72,24.65,36.44,0.90,17.50,-26.60,-53,528,-935,21.6,23.9,0.1,22.0,1.8,-30.6,5.73,2.35,-28.6,28.3
2012-06-29 00:46:00,0.0,1.8731,0.0008,395.87,0.27,7.4,13.8,138.07,30.72,24.65,36.45,0.92,17.52,-26.60,-53,528,-935,21.6,23.9,0.1,22.0,1.8,-30.7,5.73,2.38,-28.6,28.3
2012-06-29 00:47:00,0.0,1.8731,0.0008,395.81,0.28,5.8,13.4,138.07,30.72,24.65,36.45,0.90,17.54,-26.60,-53,528,-935,21.6,23.9,0.1,22.0,1.8,-30.7,5.73,2.38,-28.6,28.3
2012-06-29 00:48:00,0.0,1.8729,0.0007,395.75,0.25,6.8,14.9,138.06,30.72,24.65,36.46,0.92,17.56,-26.60,-53,528,-935,21.6,23.9,0.1,22.0,1.8,-30.7,5.73,2.36,-28.6,28.3
2012-06-29 00:49:00,0.0,1.8731,0.0010,395.84,0.28,8.5,18.5,138.07,30.72,24.65,36.45,0.91,17.57,-26.60,-53,528,-935,21.6,23.8,0.1,22.0,1.8,-30.7,5.73,2.35,-28.6,28.3
2012-06-29 00:50:00,0.0,1.8732,0.0011,395.74,0.27,7.2,13.1,138.07,30.72,24.64,36.45,0.92,17.59,-26.60,-53,528,-935,21.6,24.0,0.1,22.0,1.8,-30.7,5.73,2.38,-28.6,28.3
2012-06-29 00:51:00,0.0,1.8733,0.0008,395.77,0.29,7.7,15.3,138.07,30.72,24.64,36.45,0.92,17.61,-26.60,-53,528,-935,21.6,24.0,0.2,22.0,1.8,-30.7,5.73,2.38,-28.6,28.3
2012-06-29 00:52:00,0.0,1.8735,0.0009,395.87,0.29,7.8,17.2,138.07,30.72,24.64,36.45,0.92,17.63,-26.60,-53,528,-935,21.6,23.9,0.1,22.0,1.8,-30.7,5.73,2.35,-28.6,28.3
2012-06-29 00:53:00,0.0,1.8731,0.0007,395.75,0.27,3.9,10.7,138.07,30.72,24.65,36.45,0.92,17.64,-26.59,-53,528,-935,21.6,24.0,0.2,22.0,1.8,-30.7,5.73,2.36,-28.6,28.4
2012-06-29 00:54:00,0.0,1.8727,0.0009,395.55,0.31,7.7,15.1,138.07,30.71,24.65,36.44,0.93,17.66,-26.59,-53,528,-935,21.6,24.3,0.3,22.0,1.8,-30.7,5.73,2.38,-28.6,28.3
2012-06-29 00:55:00,0.0,1.8735,0.0009,395.61,0.35,6.7,13.8,138.07,30.71,24.64,36.46,0.93,17.67,-26.60,-53,528,-935,21.6,24.1,0.2,22.0,1.8,-30.6,5.73,2.38,-28.6,28.3
2012-06-29 00:56:00,0.0,1.8738,0.0009,395.59,0.42,2.6,9.5,138.07,30.71,24.64,36.45,0.92,17.69,-26.60,-53,528,-935,21.6,24.1,0.2,22.0,1.8,-30.7,5.73,2.35,-28.6,28.3
2012-06-29 00:57:00,0.0,1.8734,0.0010,395.65,0.30,9.6,16.9,138.07,30.71,24.64,36.46,0.93,17.70,-26.60,-53,528,-935,21.6,24.1,0.2,22.0,1.8,-30.7,5.73,2.36,-28.6,28.3
2012-06-29 00:58:00,0.0,1.8732,0.0010,395.98,0.29,3.0,7.9,138.07,30.71,24.64,36.45,1.02,17.60,-26.60,-53,528,-935,21.6,23.8,0.0,22.0,1.8,-30.7,5.73,2.39,-28.6,28.3
2012-06-29 00:59:00,0.0,1.8729,0.0010,395.66,0.29,6.6,15.8,138.07,30.71,24.65,36.46,1.07,16.23,-26.61,-53,528,-935,21.6,23.8,0.1,22.0,1.8,-30.6,5.73,2.37,-28.6,28.3
2012-06-29 01:00:00,0.0,1.8723,0.0008,395.73,0.33,5.8,14.3,138.07,30.71,24.65,36.44,1.07,14.03,-26.61,-53,528,-935,21.6,23.9,0.1,22.0,1.8,-30.6,5.73,2.35,-28.6,28.3
2012-06-29 01:01:00,0.0,1.8719,0.0008,395.51,0.38,4.7,12.6,138.07,30.71,24.65,36.45,0.95,11.71,-26.60,-53,528,-935,21.6,24.1,0.2,22.0,1.8,-30.7,5.73,2.37,-28.6,28.3
2012-06-29 01:02:00,0.0,1.8725,0.0009,395.40,0.30,7.7,13.8,138.06,30.71,24.64,36.46,1.01,9.41,-26.59,-53,528,-935,21.6,24.1,0.2,22.1,1.8,-30.6,5.73,2.39,-28.6,28.3
2012-06-29 01:03:00,0.0,1.8725,0.0009,395.54,0.32,1.6,5.9,138.07,30.71,24.64,36.45,1.09,7.19,-26.58,-53,529,-935,21.6,24.2,0.2,22.0,1.8,-30.7,5.73,2.38,-28.6,28.3
2012-06-29 01:04:00,0.0,1.8729,0.0008,395.74,0.37,5.1,12.0,138.07,30.71,24.64,36.45,0.99,5.08,-26.57,-53,528,-935,21.6,24.0,0.1,22.0,1.8,-30.7,5.73,2.36,-28.6,28.3
2012-06-29 01:05:00,0.0,1.8728,0.0008,395.82,0.29,5.6,13.0,138.07,30.71,24.64,36.45,0.99,3.07,-26.56,-53,528,-935,21.6,23.9,0.1,22.0,1.8,-30.7,5.73,2.36,-28.7,28.3
2012-06-29 01:06:00,0.0,1.8729,0.0010,395.60,0.35,4.6,13.7,138.06,30.71,24.65,36.45,1.08,1.14,-26.54,-53,528,-935,21.6,23.9,0.1,22.0,1.8,-30.7,5.73,2.38,-28.7,28.2
2012-06-29 01:07:00,0.0,1.8717,0.0008,395.46,0.36,4.0,10.8,138.06,30.71,24.64,36.46,1.02,-0.67,-26.52,-53,528,-935,21.6,23.9,0.1,22.0,1.8,-30.7,5.73,2.39,-28.7,28.2
2012-06-29 01:08:00,0.0,1.8720,0.0010,395.93,0.27,3.3,12.9,138.06,30.71,24.65,36.45,0.97,-2.32,-26.50,-53,529,-935,21.6,23.5,-0.1,22.0,1.8,-30.6,5.73,2.38,-28.7,28.2
2012-06-29 01:09:00,0.0,1.8719,0.0008,395.72,0.28,3.3,10.8,138.06,30.72,24.64,36.45,1.05,-3.82,-26.50,-53,529,-935,21.6,23.6,-0.1,22.0,1.8,-30.5,5.73,2.36,-28.7,28.2
2012-06-29 01:10:00,0.0,1.8719,0.0010,395.84,0.34,4.1,10.8,138.06,30.72,24.64,36.45,1.04,-5.32,-26.49,-53,529,-935,21.6,23.6,-0.1,22.0,1.8,-30.5,5.73,2.37,-28.7,28.2
2012-06-29 01:11:00,0.0,1.8721,0.0010,395.71,0.29,3.6,9.8,138.06,30.72,24.64,36.46,0.94,-6.54,-26.48,-53,529,-935,21.5,23.6,-0.1,22.0,1.8,-30.5,5.73,2.38,-28.8,28.2
2012-06-29 01:12:00,0.0,1.8722,0.0009,395.52,0.28,5.7,15.3,138.06,30.72,24.64,36.45,1.00,-7.82,-26.48,-53,529,-935,21.5,23.8,-0.0,22.0,1.8,-30.5,5.73,2.40,-28.8,28.2
2012-06-29 01:13:00,0.0,1.8719,0.0009,395.70,0.32,2.5,9.2,138.06,30.72,24.65,36.46,1.07,-9.07,-26.48,-53,529,-935,21.5,23.7,-0.1,22.0,1.8,-30.5,5.73,2.39,-28.8,28.2
2012-06-29 01:14:00,0.0,1.8720,0.0008,396.25,0.33,2.2,7.2,138.06,30.72,24.65,36.45,1.01,-10.23,-26.47,-53,529,-935,21.5,23.5,-0.2,22.0,1.8,-30.5,5.73,2.37,-28.8,28.2
2012-06-29 01:15:00,0.0,1.8721,0.0008,396.26,0.23,4.3,11.1,138.06,30.72,24.65,36.45,0.95,-11.21,-26.47,-54,529,-935,21.5,23.4,-0.3,22.0,1.8,-30.6,5.73,2.37,-28.8,28.2
2012-06-29 01:16:00,0.0,1.8723,0.0009,396.15,0.27,2.3,8.3,138.06,30.72,24.65,36.45,1.01,-12.25,-26.48,-54,529,-935,21.5,23.3,-0.3,22.0,1.8,-30.5,5.73,2.38,-28.8,28.2
2012-06-29 01:17:00,0.0,1.8721,0.0010,396.07,0.34,4.8,11.2,138.07,30.73,24.65,36.46,1.05,-13.25,-26.48,-54,529,-935,21.5,23.4,-0.2,22.0,1.8,-30.5,5.73,2.39,-28.8,28.2
2012-06-29 01:18:00,0.0,1.8721,0.0008,396.25,0.35,5.4,13.6,138.06,30.73,24.65,36.45,1.00,-14.21,-26.48,-54,529,-935,21.5,23.4,-0.3,22.0,1.8,-30.5,5.73,2.40,-28.8,28.2
2012-06-29 01:19:00,0.0,1.8728,0.0008,396.32,0.30,5.9,13.0,138.06,30.73,24.64,36.45,0.95,-15.09,-26.49,-54,529,-935,21.5,23.4,-0.3,22.0,1.8,-30.6,5.73,2.39,-28.8,28.1
2012-06-29 01:20:00,0.0,1.8720,0.0010,395.99,0.37,3.6,10.0,138.06,30.73,24.65,36.46,1.00,-15.90,-26.50,-54,529,-935,21.5,23.6,-0.2,22.0,1.8,-30.7,5.73,2.38,-28.8,28.1
2012-06-29 01:21:00,0.0,1.8724,0.0009,396.27,0.24,6.2,16.5,138.06,30.73,24.64,36.45,1.05,-16.70,-26.51,-54,529,-935,21.5,23.6,-0.2,22.0,1.8,-30.7,5.73,2.38,-28.8,28.1
2012-06-29 01:22:00,0.0,1.8724,0.0011,396.20,0.33,1.3,5.7,138.06,30.73,24.65,36.45,1.01,-17.45,-26.52,-53,529,-935,21.5,23.6,-0.2,22.0,1.8,-30.7,5.73,2.38,-28.8,28.1
2012-06-29 01:23:00,0.0,1.8723,0.0009,396.11,0.29,3.2,10.4,138.06,30.73,24.65,36.46,0.95,-18.14,-26.53,-54,529,-935,21.5,23.6,-0.2,22.0,1.8,-30.7,5.73,2.39,-28.8,28.1
2012-06-29 01:24:00,0.0,1.8724,0.0009,396.38,0.32,2.8,8.1,138.06,30.73,24.64,36.45,1.00,-18.81,-26.53,-54,529,-935,21.5,23.5,-0.2,21.9,1.8,-30.7,5.73,2.40,-28.9,28.1
2012-06-29 01:25:00,0.0,1.8734,0.0009,396.21,0.30,3.8,10.6,138.06,30.73,24.65,36.45,1.04,-19.44,-26.55,-54,529,-935,21.5,23.6,-0.2,21.9,1.8,-30.7,5.73,2.40,-28.9,28.1
2012-06-29 01:26:00,0.0,1.8734,0.0009,396.16,0.32,1.5,6.6,138.07,30.73,24.64,36.46,1.00,-20.06,-26.56,-54,529,-935,21.5,23.6,-0.2,21.9,1.8,-30.7,5.73,2.39,-28.9,28.1
2012-06-29 01:27:00,0.0,1.8730,0.0010,396.22,0.30,2.2,9.4,138.06,30.73,24.65,36.45,0.95,-20.64,-26.58,-54,529,-935,21.5,23.6,-0.2,21.9,1.8,-30.7,5.73,2.38,-28.9,28.1
2012-06-29 01:28:00,0.0,1.8728,0.0009,395.92,0.36,3.2,12.3,138.07,30.74,24.65,36.45,0.97,-21.18,-26.58,-54,529,-935,21.5,23.7,-0.1,21.9,1.8,-30.7,5.73,2.39,-28.9,28.1
2012-06-29 01:29:00,0.0,1.8730,0.0010,396.40,0.35,0.3,5.0,138.06,30.73,24.64,36.45,1.01,-21.70,-26.60,-54,529,-935,21.4,23.5,-0.2,21.9,1.8,-30.7,5.73,2.39,-28.9,28.0
2012-06-29 01:30:00,0.0,1.8730,0.0008,396.02,0.33,4.8,12.2,138.07,30.73,24.64,36.45,1.06,-22.18,-26.61,-54,529,-935,21.5,23.5,-0.3,21.9,1.8,-30.7,5.73,2.39,-28.9,28.0
2012-06-29 01:31:00,0.0,1.8723,0.0009,396.15,0.28,4.0,13.2,138.06,30.74,24.65,36.45,0.98,-22.63,-26.62,-54,529,-935,21.4,23.5,-0.3,21.9,1.8,-30.9,5.73,2.40,-28.9,28.0
2012-06-29 01:32:00,0.0,1.8731,0.0007,396.05,0.24,1.5,7.7,138.06,30.74,24.64,36.45,0.95,-23.06,-26.63,-54,529,-935,21.4,23.7,-0.2,21.9,1.8,-30.9,5.73,2.41,-28.9,28.0
2012-06-29 01:33:00,0.0,1.8733,0.0010,396.04,0.33,2.1,8.4,138.06,30.74,24.64,36.45,0.99,-23.46,-26.65,-54,529,-935,21.4,23.8,-0.1,21.9,1.8,-30.9,5.73,2.40,-28.9,28.0
2012-06-29 01:34:00,0.0,1.8732,0.0009,396.02,0.32,1.4,6.9,138.06,30.74,24.65,36.46,1.04,-23.83,-26.66,-54,529,-935,21.4,23.7,-0.2,21.9,1.8,-30.9,5.73,2.39,-28.9,28.0
2012-06-29 01:35:00,0.0,1.8733,0.0009,396.06,0.39,2.2,8.5,138.06,30.74,24.65,36.44,1.02,-24.19,-26.67,-54,528,-935,21.4,23.9,-0.1,21.9,1.8,-30.9,5.73,2.39,-28.9,28.0
2012-06-29 01:36:00,0.0,1.8728,0.0009,396.07,0.33,3.1,9.3,138.06,30.74,24.65,36.44,0.94,-24.52,-26.69,-54,529,-935,21.4,23.9,-0.0,21.9,1.8,-30.9,5.73,2.39,-28.9,28.0
2012-06-29 01:37:00,0.0,1.8733,0.0009,395.95,0.25,0.6,6.3,138.06,30.74,24.64,36.45,0.97,-24.83,-26.70,-54,529,-935,21.4,23.9,-0.1,21.9,1.8,-30.9,5.73,2.39,-28.9,28.0
2012-06-29 01:38:00,0.0,1.8733,0.0010,396.31,0.33,2.6,8.1,138.06,30.74,24.64,36.45,1.00,-25.13,-26.71,-54,529,-935,21.4,23.8,-0.1,21.9,1.8,-30.9,5.73,2.40,-28.9,28.0
2012-06-29 01:39:00,0.0,1.8726,0.0009,396.13,0.31,1.0,6.5,138.06,30.74,24.65,36.45,1.03,-25.40,-26.72,-54,529,-935,21.4,23.9,-0.1,21.9,1.8,-30.9,5.73,2.41,-28.9,28.0
2012-06-29 01:40:00,0.0,1.8729,0.0008,396.15,0.31,3.3,11.6,138.06,30.74,24.65,36.45,0.99,-25.66,-26.73,-54,529,-935,21.4,23.8,-0.1,21.9,1.8,-30.9,5.73,2.41,-28.9,28.0
2012-06-29 01:41:00,0.0,1.8734,0.0012,396.15,0.31,-0.0,3.6,138.06,30.74,24.64,36.45,0.94,-25.90,-26.74,-54,529,-935,21.4,23.8,-0.1,21.9,1.8,-30.9,5.73,2.40,-28.9,28.0
2012-06-29 01:42:00,0.0,1.8731,0.0008,395.94,0.31,2.1,8.2,138.06,30.74,24.64,36.46,0.97,-26.13,-26.75,-54,529,-935,21.4,23.9,-0.1,21.9,1.8,-30.9,5.73,2.40,-29.0,28.0
2012-06-29 01:43:00,0.0,1.8730,0.0011,396.07,0.33,1.1,7.0,138.06,30.74,24.64,36.45,1.03,-26.34,-26.77,-54,529,-935,21.4,23.8,-0.1,21.9,1.8,-30.9,5.73,2.39,-29.0,27.9
2012-06-29 01:44:00,0.0,1.8725,0.0009,396.00,0.30,1.9,11.2,138.06,30.74,24.65,36.45,1.03,-26.55,-26.78,-54,529,-935,21.4,23.8,-0.1,21.9,1.8,-31.0,5.73,2.39,-29.0,27.9
2012-06-29 01:45:00,0.0,1.8727,0.0010,395.97,0.33,3.8,11.2,138.06,30.74,24.65,36.45,0.95,-26.73,-26.79,-54,529,-935,21.4,23.9,-0.1,21.9,1.7,-31.1,5.73,2.39,-29.0,28.0
2012-06-29 01:46:00,0.0,1.8732,0.0009,395.89,0.30,5.1,13.3,138.06,30.74,24.64,36.45,0.94,-26.47,-26.79,-54,529,-935,21.4,23.9,-0.1,21.9,1.7,-31.0,5.73,2.40,-29.0,27.9
2012-06-29 01:47:00,0.0,1.8731,0.0010,396.25,0.30,2.1,7.8,138.06,30.74,24.65,36.45,0.95,-26.39,-26.80,-54,529,-935,21.4,23.8,-0.2,21.9,1.7,-31.1,5.73,2.40,-29.0,27.9
2012-06-29 01:48:00,0.0,1.8731,0.0010,395.87,0.29,3.2,12.8,138.07,30.74,24.65,36.45,0.97,-26.53,-26.81,-54,528,-935,21.4,23.9,-0.1,21.9,1.7,-31.1,5.73,2.42,-29.0,27.9
2012-06-29 01:49:00,0.0,1.8733,0.0009,395.91,0.28,2.2,8.4,138.06,30.74,24.65,36.45,1.01,-26.71,-26.83,-54,528,-935,21.4,24.0,-0.0,21.9,1.7,-31.0,5.73,2.41,-29.0,28.0
2012-06-29 01:50:00,0.0,1.8732,0.0011,395.97,0.26,0.7,6.4,138.06,30.74,24.65,36.45,0.89,-26.68,-26.83,-54,529,-935,21.4,23.9,-0.0,21.9,1.7,-31.1,5.73,2.41,-29.0,27.9
2012-06-29 01:51:00,0.0,1.8733,0.0009,396.00,0.34,4.4,11.2,138.06,30.74,24.65,36.46,1.05,-26.41,-26.84,-54,528,-935,21.4,23.9,-0.1,21.9,1.7,-31.1,5.73,2.40,-29.0,27.9
2012-06-29 01:52:00,0.0,1.8736,0.0008,396.30,0.32,1.4,7.6,138.06,30.74,24.65,36.45,1.00,-26.51,-26.85,-54,528,-935,21.4,23.8,-0.1,21.9,1.7,-31.0,5.73,2.39,-29.0,27.9
2012-06-29 01:53:00,0.0,1.8734,0.0010,396.22,0.27,1.4,8.3,138.06,30.74,24.65,36.45,0.93,-26.68,-26.87,-54,529,-935,21.4,23.8,-0.1,21.9,1.7,-31.1,5.73,2.39,-29.0,28.0
2012-06-29 01:54:00,0.0,1.8734,0.0009,396.04,0.31,1.0,4.4,138.06,30.74,24.65,36.45,0.91,-26.82,-26.88,-54,528,-935,21.4,23.8,-0.1,21.9,1.7,-31.0,5.73,2.39,-29.0,27.9
2012-06-29 01:55:00,0.0,1.8736,0.0009,395.92,0.31,0.9,7.0,138.06,30.74,24.65,36.45,0.97,-26.50,-26.88,-54,529,-935,21.4,23.9,-0.0,21.9,1.7,-31.1,5.73,2.40,-29.0,27.9
2012-06-29 01:56:00,0.0,1.8736,0.0008,395.87,0.29,0.8,5.5,138.07,30.74,24.64,36.45,1.00,-26.49,-26.89,-54,528,-935,21.4,24.1,0.0,21.9,1.7,-31.1,5.73,2.41,-29.0,27.9
2012-06-29 01:57:00,0.0,1.8737,0.0010,396.24,0.31,3.5,8.8,138.06,30.75,24.64,36.44,0.92,-26.64,-26.75,-54,528,-935,21.4,23.9,-0.1,21.9,1.8,-31.0,5.73,2.42,-29.0,27.9
2012-06-29 01:58:00,0.0,1.8738,0.0010,396.08,0.27,1.1,7.6,138.06,30.75,24.64,36.45,0.90,-26.83,-25.41,-54,528,-935,21.4,23.9,-0.1,21.9,1.8,-30.9,5.73,2.40,-29.0,27.9
2012-06-29 01:59:00,0.0,1.8740,0.0010,396.03,0.33,3.4,9.2,138.06,30.74,24.64,36.45,0.96,-26.96,-23.49,-54,528,-935,21.4,23.9,-0.1,21.9,1.9,-30.1,5.73,2.40,-29.0,27.9
2012-06-29 02:00:00,0.0,1.8745,0.0008,396.08,0.24,2.6,10.9,138.07,30.74,24.64,36.45,0.88,-27.03,-21.50,-54,528,-935,21.4,23.8,-0.1,21.9,2.1,-29.3,5.73,2.39,-29.0,27.9
2012-06-29 02:01:00,0.0,1.8748,0.0010,396.17,0.32,2.0,8.4,138.07,30.74,24.65,36.45,0.77,-27.05,-19.58,-54,528,-935,21.4,23.8,-0.1,21.9,2.1,-28.9,5.73,2.39,-29.0,27.9
2012-06-29 02:02:00,0.0,1.8742,0.0009,395.97,0.33,2.1,9.6,138.06,30.74,24.65,36.45,0.86,-27.06,-17.76,-54,528,-935,21.4,23.9,-0.0,21.9,2.2,-28.7,5.73,2.40,-29.0,27.9
2012-06-29 02:03:00,0.0,1.8741,0.0010,396.06,0.27,2.1,8.7,138.07,30.75,24.64,36.45,0.91,-27.06,-16.02,-53,528,-935,21.4,23.9,-0.1,21.9,2.2,-28.7,5.73,2.41,-29.0,27.9
2012-06-29 02:04:00,0.0,1.8739,0.0009,395.91,0.31,2.9,10.9,138.06,30.75,24.65,36.46,0.96,-27.04,-14.37,-53,528,-935,21.4,23.8,-0.1,21.9,2.2,-28.8,5.73,2.41,-29.0,27.9
2012-06-29 02:05:00,0.0,1.8745,0.0010,396.07,0.29,1.9,7.5,138.07,30.75,24.65,36.45,0.88,-27.02,-12.81,-54,528,-935,21.4,23.7,-0.2,21.9,2.1,-28.9,5.73,2.39,-29.0,27.9
2012-06-29 02:06:00,0.0,1.8739,0.0010,395.81,0.27,1.2,6.3,138.07,30.75,24.65,36.45,0.80,-27.00,-11.34,-54,528,-935,21.4,23.9,-0.1,21.9,2.1,-29.0,5.73,2.38,-29.0,27.9
2012-06-29 02:07:00,0.0,1.8741,0.0009,395.99,0.35,2.2,8.5,138.07,30.75,24.65,36.45,0.86,-26.97,-9.94,-53,528,-934,21.4,23.8,-0.1,21.9,2.1,-29.0,5.73,2.39,-29.0,27.9
2012-06-29 02:08:00,0.0,1.8744,0.0009,396.13,0.30,1.4,6.4,138.06,30.75,24.65,36.45,0.91,-26.94,-8.61,-53,528,-935,21.4,23.7,-0.2,21.9,2.1,-29.2,5.73,2.40,-29.0,27.9
2012-06-29 02:09:00,0.0,1.8742,0.0007,395.93,0.28,5.5,16.0,138.06,30.75,24.65,36.46,0.95,-26.92,-7.35,-53,528,-934,21.4,23.7,-0.1,21.9,2.1,-29.3,5.73,2.40,-29.0,27.9
2012-06-29 02:10:00,0.0,1.8744,0.0008,396.04,0.30,4.6,12.0,138.07,30.75,24.64,36.45,0.92,-26.89,-6.16,-53,528,-935,21.4,23.8,-0.1,21.9,2.0,-29.4,5.73,2.40,-29.0,27.9
2012-06-29 02:11:00,0.0,1.8741,0.0010,396.00,0.28,3.7,11.3,138.07,30.75,24.65,36.45,0.81,-26.87,-5.02,-53,528,-934,21.4,23.8,-0.1,21.9,2.0,-29.4,5.73,2.38,-29.0,28.0
2012-06-29 02:12:00,0.0,1.8736,0.0009,396.02,0.29,2.9,11.4,138.06,30.75,24.65,36.45,0.85,-26.84,-3.94,-53,528,-935,21.4,23.9,-0.1,21.9,2.0,-29.5,5.73,2.38,-29.0,28.0
2012-06-29 02:13:00,0.0,1.8744,0.0009,396.02,0.32,3.9,13.2,138.06,30.75,24.64,36.45,0.88,-26.82,-2.91,-53,528,-935,21.4,23.8,-0.1,21.9,2.0,-29.5,5.73,2.40,-29.0,28.0
2012-06-29 02:14:00,0.0,1.8744,0.0007,395.96,0.29,2.1,7.8,138.06,30.74,24.64,36.45,0.92,-26.79,-1.94,-53,528,-934,21.5,23.8,-0.1,21.9,2.0,-29.6,5.73,2.40,-28.9,28.0
2012-06-29 02:15:00,0.0,1.8739,0.0008,395.98,0.29,1.2,7.2,138.06,30.74,24.65,36.45,0.95,-26.76,-1.00,-53,528,-935,21.5,23.8,-0.1,21.9,2.0,-29.6,5.73,2.38,-28.9,28.0
2012-06-29 02:16:00,0.0,1.8745,0.0009,396.12,0.31,1.2,5.5,138.06,30.74,24.64,36.45,0.94,-26.74,-0.12,-53,528,-935,21.5,23.7,-0.1,21.9,2.0,-29.6,5.73,2.37,-28.9,28.0
2012-06-29 02:17:00,0.0,1.8740,0.0009,395.94,0.31,4.3,13.9,138.06,30.74,24.65,36.45,0.89,-26.72,0.72,-53,528,-934,21.5,23.8,-0.1,21.9,2.0,-29.6,5.73,2.39,-28.9,28.1
2012-06-29 02:18:00,0.0,1.8738,0.0010,396.11,0.33,1.7,8.7,138.06,30.74,24.65,36.45,0.84,-26.69,1.51,-53,528,-935,21.5,23.8,-0.1,21.9,2.0,-29.7,5.73,2.40,-28.9,28.1
2012-06-29 02:19:00,0.0,1.8742,0.0011,396.37,0.24,3.3,9.5,138.06,30.74,24.65,36.44,0.87,-26.67,2.25,-53,528,-935,21.5,23.5,-0.2,21.9,2.0,-29.8,5.73,2.39,-28.9,28.1
2012-06-29 02:20:00,0.0,1.8737,0.0007,395.88,0.28,2.7,10.5,138.06,30.75,24.64,36.46,0.90,-26.65,2.86,-53,528,-934,21.5,23.8,-0.0,21.9,2.0,-29.8,5.73,2.38,-28.9,28.1
2012-06-29 02:21:00,0.0,1.8739,0.0008,396.02,0.28,6.3,14.8,138.06,30.75,24.65,36.45,0.92,-26.62,3.20,-53,528,-935,21.5,23.9,0.0,21.9,2.0,-29.8,5.73,2.38,-28.8,28.1